Weather reports worldwide

Advertisment
San Jose, ca, United States of America (2074876): temperature & dewpoint: 16.10.2020 22:00:00 - 22.10.2020 22:00:00 (PDT)San Jose, ca, United States of America (2074876): wind speed: 16.10.2020 22:00:00 - 22.10.2020 22:00:00 (PDT)San Jose, ca, United States of America (2074876): wind direction: 16.10.2020 22:00:00 - 22.10.2020 22:00:00 (PDT)San Jose, ca, United States of America (2074876): reduced air pressure: 16.10.2020 22:00:00 - 22.10.2020 22:00:00 (PDT)San Jose, ca, United States of America (2074876): visibility: 16.10.2020 22:00:00 - 22.10.2020 22:00:00 (PDT)
Date & Time tt [°C] td [°C] ff [km/h] ff [kn] dd ppp [hPa] vv [km]
22.10.2020 22:00:00 15,6 11,7 9 5 NNW 1012,5 16
22.10.2020 21:00:00 16,1 11,7 11 6 NNW 1011,9 16
22.10.2020 20:00:00 17,2 11,1 9 5 NNW 1011,3 16
22.10.2020 19:00:00 18,3 12,2 24 13 NW 1010,4 16
22.10.2020 18:00:00 21,1 10,6 22 12 NW 1009,8 16
22.10.2020 17:00:00 23,9 7,2 18 10 WNW 1009,6 16
22.10.2020 16:00:00 25,6 7,2 21 11 NW 1009,5 16
22.10.2020 15:00:00 26,1 6,7 22 12 NW 1009,6 16
22.10.2020 14:00:00 26,1 4,4 9 5 WNW 1009,9 16
22.10.2020 13:00:00 25,0 7,2 9 5 - 1010,9 16
22.10.2020 12:00:00 22,2 10,0 0 0 N 1011,5 16
22.10.2020 11:00:00 18,9 10,6 0 0 N 1011,8 16
22.10.2020 10:00:00 17,2 10,6 9 5 SSE 1011,8 16
22.10.2020 09:00:00 14,4 10,6 9 5 SE 1011,3 16
22.10.2020 08:00:00 13,3 10,0 8 4 SSE 1010,3 13
22.10.2020 07:00:00 13,3 9,4 5 3 S 1010,1 16
22.10.2020 06:00:00 13,3 8,9 9 5 SSE 1009,3 16
22.10.2020 05:00:00 15,0 8,9 15 8 SSE 1009,1 16
22.10.2020 04:00:00 15,0 8,9 9 5 S 1008,7 16
22.10.2020 03:00:00 16,1 8,9 5 3 S 1008,5 16
22.10.2020 02:00:00 16,7 9,4 5 3 - 1008,5 16
22.10.2020 01:00:00 16,7 9,4 0 0 N 1008,5 16
22.10.2020 00:00:00 17,2 11,1 0 0 N 1008,5 16
21.10.2020 23:00:00 19,4 12,2 0 0 N 1008,8 16
21.10.2020 22:00:00 20,0 11,7 8 4 NW 1008,6 16
21.10.2020 21:00:00 20,0 10,6 8 4 WNW 1008,3 16
21.10.2020 20:00:00 21,1 11,1 8 4 NW 1008,1 16
21.10.2020 19:00:00 22,2 10,6 13 7 NW 1007,4 16
21.10.2020 18:00:00 23,9 12,8 22 12 NW 1007,4 16
21.10.2020 17:00:00 28,9 7,8 16 9 NW 1007,2 16
21.10.2020 16:00:00 30,0 7,8 11 6 - 1007,3 16
21.10.2020 15:00:00 30,0 8,9 11 6 NNW 1007,8 16
21.10.2020 14:00:00 28,9 8,9 11 6 NNW 1008,7 16
21.10.2020 13:00:00 26,7 9,4 0 0 N 1009,8 16
21.10.2020 12:00:00 25,6 8,3 8 4 N 1010,3 16
21.10.2020 11:00:00 23,3 8,3 0 0 N 1010,5 16
21.10.2020 10:00:00 19,4 7,2 0 0 N 1010,8 16
21.10.2020 09:00:00 16,7 7,2 5 3 SSE 1010,8 16
21.10.2020 08:00:00 13,9 7,2 5 3 E 1010,6 16
21.10.2020 07:00:00 13,9 7,8 0 0 N 1010,3 16
21.10.2020 06:00:00 14,4 6,7 5 3 WSW 1010,0 16
21.10.2020 05:00:00 13,9 6,7 0 0 N 1009,7 16
21.10.2020 04:00:00 14,4 8,3 8 4 SSE 1010,0 16
21.10.2020 03:00:00 16,1 8,9 0 0 N 1010,4 16
21.10.2020 02:00:00 16,7 9,4 0 0 N 1010,3 16
21.10.2020 01:00:00 16,1 9,4 0 0 N 1010,1 16
21.10.2020 00:00:00 18,3 10,0 0 0 N 1010,2 16
20.10.2020 23:00:00 18,9 10,0 0 0 N 1010,3 16
20.10.2020 22:00:00 20,0 10,0 0 0 N 1010,3 16
20.10.2020 21:00:00 20,6 10,0 0 0 N 1010,3 16
20.10.2020 20:00:00 22,8 7,8 8 4 WSW 1010,2 16
20.10.2020 19:00:00 23,3 9,4 11 6 NW 1009,7 16
20.10.2020 18:00:00 25,6 10,0 18 10 NW 1009,4 16
20.10.2020 17:00:00 26,7 10,6 18 10 NW 1009,5 16
20.10.2020 16:00:00 28,3 12,8 22 12 NW 1009,7 16
20.10.2020 15:00:00 30,0 9,4 15 8 NNW 1010,0 16
20.10.2020 14:00:00 29,4 10,6 9 5 N 1010,4 16
20.10.2020 13:00:00 26,7 10,6 0 0 N 1011,4 16
20.10.2020 12:00:00 23,3 11,1 0 0 N 1012,4 16
20.10.2020 11:00:00 21,1 11,7 0 0 N 1013,1 16
20.10.2020 10:00:00 18,3 12,2 0 0 N 1013,7 16
20.10.2020 09:00:00 15,6 10,6 0 0 N 1013,6 16
20.10.2020 08:00:00 13,9 10,0 0 0 N 1013,0 16
20.10.2020 07:00:00 13,9 10,6 0 0 N 1012,8 16
20.10.2020 06:00:00 14,4 11,1 5 3 SW 1012,8 16
20.10.2020 05:00:00 13,9 11,7 0 0 N 1012,8 16
20.10.2020 04:00:00 15,0 11,7 0 0 N 1013,0 16
20.10.2020 03:00:00 15,6 12,2 0 0 N 1013,2 16
20.10.2020 02:00:00 16,1 12,8 0 0 N 1013,3 16
20.10.2020 01:00:00 16,7 13,9 5 3 NNW 1013,5 16
20.10.2020 00:00:00 18,3 13,3 0 0 N 1013,5 16
19.10.2020 23:00:00 17,8 13,3 0 0 N 1013,6 16
19.10.2020 22:00:00 18,9 13,9 0 0 N 1013,7 16
19.10.2020 21:00:00 18,3 12,8 5 3 NNW 1013,6 16
19.10.2020 20:00:00 20,0 12,8 11 6 NNW 1013,5 16
19.10.2020 19:00:00 20,6 12,8 15 8 NNW 1012,8 16
19.10.2020 18:00:00 23,9 13,3 22 12 NNW 1012,4 16
19.10.2020 17:00:00 29,4 7,2 5 3 NNW 1012,5 16
19.10.2020 16:00:00 28,3 7,2 8 4 N 1013,4 16
19.10.2020 15:00:00 27,2 6,7 13 7 NNW 1014,1 16
19.10.2020 14:00:00 25,6 8,9 16 9 NNW 1014,8 16
19.10.2020 13:00:00 23,9 11,1 16 9 NW 1015,5 16
19.10.2020 12:00:00 24,4 9,4 9 5 NNW 1015,9 16
19.10.2020 11:00:00 21,1 10,0 0 0 N 1016,0 16
19.10.2020 10:00:00 18,9 9,4 9 5 S 1016,4 16
19.10.2020 09:00:00 16,1 11,7 0 0 N 1016,6 16
19.10.2020 08:00:00 14,4 9,4 0 0 N 1016,4 16
19.10.2020 07:00:00 13,9 8,3 0 0 N 1015,8 16
19.10.2020 06:00:00 15,0 8,9 0 0 N 1015,2 16
19.10.2020 05:00:00 15,0 8,9 0 0 N 1014,9 16
19.10.2020 04:00:00 15,0 9,4 0 0 N 1015,0 16
19.10.2020 03:00:00 - - - - - - -
19.10.2020 02:00:00 - - - - - - -
19.10.2020 01:00:00 17,2 10,0 0 0 N 1016,0 16
19.10.2020 00:00:00 17,2 11,1 8 4 SSE 1015,8 16
18.10.2020 23:00:00 19,4 11,7 0 0 N 1015,9 16
18.10.2020 22:00:00 20,0 11,7 0 0 N 1015,5 16
18.10.2020 21:00:00 20,6 10,6 0 0 N 1015,2 16
18.10.2020 20:00:00 21,1 10,6 8 4 NW 1015,1 16
18.10.2020 19:00:00 21,7 12,2 15 8 NW 1014,5 16
18.10.2020 18:00:00 25,0 12,8 18 10 NW 1013,9 16
18.10.2020 17:00:00 29,4 6,7 15 8 NNW 1013,5 16
18.10.2020 16:00:00 30,0 4,4 9 5 NW 1013,5 16
18.10.2020 15:00:00 30,6 4,4 11 6 NNW 1014,0 16
18.10.2020 14:00:00 28,9 6,7 11 6 NW 1014,7 16
18.10.2020 13:00:00 28,9 7,2 11 6 NW 1015,3 16
18.10.2020 12:00:00 27,2 4,4 8 4 N 1016,1 16
18.10.2020 11:00:00 25,0 4,4 5 3 SSE 1016,5 16
18.10.2020 10:00:00 21,7 5,0 5 3 SSW 1016,5 16
18.10.2020 09:00:00 19,4 4,4 8 4 SSW 1016,0 16
18.10.2020 08:00:00 16,1 5,0 5 3 W 1015,4 16
18.10.2020 07:00:00 15,0 4,4 9 5 SE 1014,8 16
18.10.2020 06:00:00 16,1 5,6 0 0 N 1014,4 16
18.10.2020 05:00:00 17,2 4,4 0 0 N 1014,0 16
18.10.2020 04:00:00 17,8 5,0 0 0 N 1013,8 16
18.10.2020 03:00:00 17,2 5,0 11 6 SSE 1013,8 16
18.10.2020 02:00:00 18,9 5,6 8 4 SSE 1014,1 16
18.10.2020 01:00:00 19,4 6,1 5 3 S 1013,9 16
18.10.2020 00:00:00 18,9 7,2 8 4 SSE 1014,0 16
17.10.2020 23:00:00 21,7 8,9 5 3 E 1014,2 16
17.10.2020 22:00:00 22,8 8,3 0 0 N 1013,7 16
17.10.2020 21:00:00 23,9 10,0 5 3 WSW 1013,1 16
17.10.2020 20:00:00 24,4 8,3 9 5 NW 1012,6 16
17.10.2020 19:00:00 26,7 7,2 11 6 NW 1011,9 16
17.10.2020 18:00:00 31,7 5,0 11 6 NW 1011,6 16
17.10.2020 17:00:00 34,4 2,2 13 7 NNW 1011,6 16
17.10.2020 16:00:00 33,9 3,3 11 6 NNW 1011,7 16
17.10.2020 15:00:00 34,4 4,4 13 7 NNW 1012,0 16
17.10.2020 14:00:00 33,3 2,8 0 0 N 1012,8 16
17.10.2020 13:00:00 31,7 3,3 5 3 S 1013,8 16
17.10.2020 12:00:00 29,4 3,9 0 0 N 1014,5 16
17.10.2020 11:00:00 25,6 3,3 0 0 N 1014,9 16
17.10.2020 10:00:00 22,2 5,0 0 0 N 1014,9 16
17.10.2020 09:00:00 18,9 5,0 0 0 N 1014,6 16
17.10.2020 08:00:00 15,6 4,4 5 3 SSE 1013,8 16
17.10.2020 07:00:00 16,1 5,0 5 3 SE 1013,7 16
17.10.2020 06:00:00 16,1 5,0 0 0 N 1013,5 16
17.10.2020 05:00:00 16,1 5,0 5 3 SE 1013,0 16
17.10.2020 04:00:00 16,1 5,6 8 4 SE 1013,0 16
17.10.2020 03:00:00 17,8 5,6 0 0 N 1013,3 16
17.10.2020 02:00:00 18,3 5,0 0 0 N 1013,1 16
17.10.2020 01:00:00 20,6 5,6 0 0 N 1013,0 16
17.10.2020 00:00:00 20,0 5,6 5 3 SE 1013,0 16
16.10.2020 23:00:00 20,6 6,7 8 4 SSE 1012,8 16
16.10.2020 22:00:00 23,3 7,2 0 0 N 1012,6 16

tt = temperature
td = dewpoint
ff = wind speed
dd = wind direction
ppp = reduced air pressure
vv = visibility

Next stations